User: anonymous   Login
Location: Clatteringshaws Loch
(55.0508°N, 4.2860°W)
Time: 10:30:32
(UTC+01:00)
Language:

Cosmos 2221 Rocket - Orbit

View from above orbital plane
View from above orbital plane
View from above satellite
View from above satellite

Ground track
Ground track

The orbit data is extracted from the following two-line orbital elements,

1 22237U 92080B   15209.52749043  .00000142  00000-0  16397-4 0  9993
2 22237 082.5103 039.2040 0018466 303.0806 111.9615 14.78162384221553
Epoch (UTC): 28 July 2015 12:39:35
Eccentricity: 0.0018466
inclination: 82.5103°
perigee height: 622 km
apogee height: 648 km
right ascension of ascending node: 39.2040°
argument of perigee: 303.0806°
revolutions per day: 14.78162384
mean anomaly at epoch: 111.9615°
orbit number at epoch: 22155

The dashed part of the orbit path shows where the satellite is in the earth's shadow,  

DLR